Location: Springville
(37.3745°N, 89.2676°W)
Time: 15:11:54
(UTC+00:00)

OAO 3 Rocket - Pass Details

Date: 29 October 2020
Orbit: 629 x 682 km, 35.0° (Epoch: 03 December)

Event Time Altitude Azimuth Distance (km) Brightness Sun altitude
Rises 23:20:27 0° 274° (W) 2,998 8.3 -4.4°
Reaches altitude 10° 23:22:57 10° 268° (W) 2,075 7.5 -4.9°
Maximum altitude 23:27:29 41° 198° (SSW) 952 4.4 -5.8°
Drops below altitude 10° 23:31:56 10° 129° (SE) 2,037 5.4 -6.6°
Sets 23:34:22 0° 122° (ESE) 2,936 6.1 -7.1°
Enters shadow 23:34:30 - 122° (ESE) 2,989 6.1 -7.1°
